Terminal Aerodrome Forecast
Issued by NWS Sioux Falls, SD

Home | Current Version | Previous Version | Text Only | Print | Product List | Glossary On
Versions: 1 2 3 4 5 6 7 8 9 10 11 12 13 14 15 16 17 18 19 20 21 22 23 24 25 26 27 28 29 30 31 32 33 34 35 36 37
000
FTUS43 KFSD 132328
TAFSUX
TAF
KSUX 132328Z 1400/1424 14015G23KT P6SM -SN OVC035
     FM140600 14017G26KT P6SM -SN OVC025
     FM141300 17010KT P6SM OVC020
     FM141800 29008KT P6SM BKN035
     FM142300 26006KT P6SM BKN080=

USA.gov is the U.S. government's official web portal to all federal, state and local government web resources and services.